[[{"header":{"parameterUnit":"m.s-1","parameterCategory":1,"la1":30.2991,"la2":30.254,"lo1":-89.0895,"lo2":-89.0444,"dy":0.0017,"dx":0.0017,"nx":28,"ny":28,"refTime":"2024-05-17T21:00:00:Z","depth":0,"parameterNumber":2,"parameterNumberName":"U-component_of_WINDS"},"data":[0,0,0,0,0,0,0,0,0,0,0,0,0,0,0,0,0,0,0,0,0,0,0,0,0,0,0,0,0,0,0,0,0,0,0,0,0,0,0,0,0,0,0,0,0,0,0,0,0,0,0,0,0,0,0,0,0,0,-2.1605,-2.1604,0,-2.1512,-2.1511,-2.151,-2.1421,-2.1419,-2.1418,-2.1417,-2.1321,-2.1319,-2.1318,0,0,0,0,0,0,0,0,0,0,0,0,0,-2.1699,-2.1698,-2.1605,-2.1603,-2.1602,-2.1512,-2.1511,-2.151,-2.1421,-2.1419,-2.1418,-2.1417,-2.1321,-2.132,-2.1318,0,0,0,0,0,0,0,0,0,0,0,0,0,-2.1638,-2.1698,-2.1605,-2.1547,-2.1541,-2.1513,-2.1511,-2.1509,-2.1421,-2.1419,-2.1418,-2.1416,-2.1322,-2.132,-2.1317,-2.1338,0,0,-2.1311,-2.131,0,0,0,0,0,0,0,0,-2.1641,-2.1634,-2.1557,-2.1551,-2.1544,-2.1476,-2.1509,-2.1452,-2.1421,-2.1467,-2.1417,-2.1415,-2.1374,-2.1367,-2.1354,-2.1334,-2.133,-2.131,-2.1309,-2.1308,-2.1307,0,0,0,0,0,0,0,-2.1646,-2.1638,-2.1568,-2.1556,-2.1548,-2.1524,-2.1514,-2.1498,-2.1431,-2.1462,-2.1456,-2.1446,-2.137,-2.1356,-2.1351,-2.1328,-2.131,-2.1309,-2.1307,-2.1306,-2.1315,-2.1317,0,0,0,0,0,0,-2.1659,-2.1642,-2.1571,-2.1565,-2.1589,-2.1524,-2.1512,-2.15,-2.1431,-2.1419,-2.1448,-2.1442,-2.1361,-2.1353,-2.1347,-2.1363,-2.1308,-2.1306,-2.1305,-2.1314,-2.1316,-2.1317,0,0,0,0,0,0,-2.1662,-2.1654,-2.1575,-2.1602,-2.159,-2.1524,-2.1511,-2.1499,-2.1485,-2.142,-2.1407,-2.1446,-2.1359,-2.135,-2.134,-2.1359,-2.1305,-2.1303,-2.1312,-2.1314,-2.1317,-2.1399,0,0,0,0,0,0,-2.1665,-2.1655,-2.1664,-2.1603,-2.1589,-2.1571,-2.1512,-2.1498,-2.1481,-2.1473,-2.1415,-2.1403,-2.1357,-2.1344,-2.1338,-2.1355,-2.1301,-2.131,-2.1313,-2.1316,-2.1395,-2.1404,-2.1413,0,0,0,0,0,-2.1668,-2.1691,-2.1665,-2.1657,-2.1598,-2.1573,-2.1564,-2.1511,-2.1483,-2.149,-2.1448,-2.1405,-2.1358,-2.1344,-2.1336,-2.1353,-2.1308,-2.1312,-2.1316,-2.1391,-2.1402,-2.1412,0,0,0,0,0,0,-2.1757,-2.1682,-2.1652,-2.1656,-2.1621,-2.1558,-2.1565,-2.1526,-2.1498,-2.1492,-2.1426,-2.1413,-2.141,-2.138,-2.1366,-2.1367,-2.1327,-2.1329,-2.1387,-2.1397,-2.1406,-2.1413,-2.1299,0,0,0,0,0,-2.1777,-2.1763,-2.1699,-2.1708,-2.1692,-2.1632,-2.1619,-2.158,-2.1541,-2.1526,-2.1483,-2.1446,-2.1422,-2.1408,-2.1383,-2.139,-2.1373,-2.1397,-2.1406,-2.1414,-2.1416,-2.1413,-2.1422,-2.1329,-2.1329,-2.1329,0,0,-2.1818,-2.1776,-2.1771,-2.1725,-2.1693,-2.1679,-2.162,-2.1608,-2.1596,-2.1524,-2.1511,-2.1478,-2.1432,-2.143,-2.1426,-2.1405,-2.1438,-2.1418,-2.1425,-2.1423,-2.1418,-2.1427,-2.1434,-2.1332,-2.1331,-2.1331,0,0,-2.1886,-2.1853,-2.1856,-2.1825,-2.1778,-2.1737,-2.1738,-2.1679,-2.1654,-2.164,-2.1584,-2.1568,-2.153,-2.1498,-2.1477,-2.1528,-2.1486,-2.1521,-2.1568,-2.1566,-2.1573,-2.1579,-2.1595,-2.1601,-2.1524,-2.1524,-2.1525,0,-2.1943,-2.192,-2.1863,-2.1853,-2.1833,-2.1766,-2.1767,-2.1739,-2.1686,-2.1673,-2.1649,-2.1597,-2.1562,-2.1549,-2.1561,-2.1547,-2.1543,-2.1528,-2.1577,-2.1583,-2.1587,-2.1601,-2.1608,-2.1529,-2.1528,-2.1528,-2.1527,0,-2.1991,-2.1976,-2.1984,-2.1933,-2.1914,-2.191,-2.185,-2.1837,-2.1799,-2.176,-2.1744,-2.1698,-2.1661,-2.1655,-2.1619,-2.1636,-2.1623,-2.159,-2.1548,-2.1602,-2.1613,-2.1618,-2.1535,-2.1534,-2.1532,-2.1531,0,0,-2.2114,-2.2029,-2.2033,-2.2008,-2.1949,-2.1935,-2.1926,-2.189,-2.1878,-2.1843,-2.1832,-2.1799,-2.1766,-2.1742,-2.1701,-2.1699,-2.1738,-2.1664,-2.1662,-2.1678,-2.175,-2.1775,-2.1782,-2.171,-2.1711,-2.1712,-2.1753,0,-2.217,-2.2152,-2.2098,-2.2095,-2.2078,-2.2012,-2.2004,-2.1966,-2.1928,-2.1906,-2.1864,-2.184,-2.18,-2.1784,-2.178,-2.1735,-2.1751,-2.1731,-2.1697,-2.1696,-2.171,-2.1789,-2.1816,-2.1858,-2.1757,-2.1758,-2.1759,0,-2.2234,-2.2202,-2.2197,-2.2136,-2.2126,-2.2121,-2.208,-2.2062,-2.2015,-2.1987,-2.1959,-2.1912,-2.1896,-2.1858,-2.1833,-2.182,-2.1802,-2.1777,-2.1777,-2.1771,-2.1731,-2.1783,-2.187,-2.1876,-2.1766,-2.1765,-2.1765,0,-2.2321,-2.2277,-2.2267,-2.2248,-2.2177,-2.2173,-2.2143,-2.2095,-2.2075,-2.2039,-2.2025,-2.1988,-2.1967,-2.1938,-2.1882,-2.186,-2.1862,-2.182,-2.1836,-2.1837,-2.1839,-2.184,-2.1923,-2.183,-2.183,-2.183,-2.183,0,-2.2389,-2.2388,-2.2305,-2.2299,-2.2295,-2.2232,-2.2229,-2.2192,-2.2149,-2.2133,-2.2074,-2.2059,-2.1986,-2.1962,-2.1917,-2.1901,-2.1893,-2.1868,-2.1856,-2.1873,-2.1876,-2.186,-2.1855,-2.1832,-2.1831,-2.1831,-2.1831,0,-2.2486,-2.2431,-2.2415,-2.2348,-2.2331,-2.2331,-2.2272,-2.2262,-2.2219,-2.2199,-2.2191,-2.2123,-2.2092,-2.2032,-2.1984,-2.1954,-2.1947,-2.1927,-2.1963,-2.1955,-2.1973,-2.1972,-2.2048,-2.2053,-2.196,-2.1961,-2.1962,0,-2.2532,-2.253,-2.2462,-2.2447,-2.2419,-2.2396,-2.2375,-2.2311,-2.2291,-2.2236,-2.2232,-2.2196,-2.2163,-2.2115,-2.2061,-2.2022,-2.2,-2.2029,-2.1993,-2.2009,-2.1997,-2.1997,-2.1995,-2.2037,-2.2038,-2.2039,-2.204,0,-2.262,-2.2592,-2.2565,-2.2527,-2.2503,-2.247,-2.2433,-2.2424,-2.2351,-2.2331,-2.2298,-2.2273,-2.2222,-2.2186,-2.2139,-2.2104,-2.2059,-2.2051,-2.2053,-2.2069,-2.2089,-2.2076,-2.1983,-2.205,-2.2049,-2.2048,-2.2048,-2.2048,-2.2692,-2.2685,-2.2635,-2.2606,-2.2571,-2.2538,-2.2524,-2.2479,-2.2451,-2.2405,-2.2369,-2.2338,-2.2286,-2.2218,-2.2187,-2.2159,-2.2138,-2.2141,-2.2141,-2.2142,-2.2148,-2.2095,-2.2151,-2.215,-2.215,-2.215,-2.2149,0,-2.2774,-2.2738,-2.2712,-2.2662,-2.2638,-2.2598,-2.2554,-2.2535,-2.2509,-2.2466,-2.2435,-2.2394,-2.2358,-2.2299,-2.2256,-2.2245,-2.2223,-2.2236,-2.2236,-2.2228,-2.2171,-2.2173,-2.2255,-2.2255,-2.2255,-2.2255,-2.2255,-2.2255,-2.2815,-2.2801,-2.2766,-2.2733,-2.2696,-2.2666,-2.2644,-2.2611,-2.2576,-2.2534,-2.2503,-2.2465,-2.2414,-2.2366,-2.2329,-2.2312,-2.2299,-2.2318,-2.2294,-2.2242,-2.2232,-2.2223,-2.2225,-2.2316,-2.2316,-2.2353,-2.2354,-2.2354]},{"header":{"parameterUnit":"m.s-1","parameterCategory":1,"la1":30.2991,"la2":30.254,"lo1":-89.0895,"lo2":-89.0444,"dy":0.0017,"dx":0.0017,"nx":28,"ny":28,"refTime":"2024-05-17T21:00:00:Z","depth":0,"parameterNumber":3,"parameterNumberName":"V-component_of_WINDS"},"data":[0,0,0,0,0,0,0,0,0,0,0,0,0,0,0,0,0,0,0,0,0,0,0,0,0,0,0,0,0,0,0,0,0,0,0,0,0,0,0,0,0,0,0,0,0,0,0,0,0,0,0,0,0,0,0,0,0,0,-3.2246,-3.2247,0,-3.2261,-3.2261,-3.2261,-3.2244,-3.2243,-3.2242,-3.2242,-3.2254,-3.2255,-3.2256,0,0,0,0,0,0,0,0,0,0,0,0,0,-3.22,-3.2201,-3.2246,-3.2247,-3.2247,-3.2261,-3.2261,-3.2261,-3.2244,-3.2243,-3.2242,-3.2242,-3.2254,-3.2255,-3.2256,0,0,0,0,0,0,0,0,0,0,0,0,0,-3.2218,-3.2201,-3.2246,-3.224,-3.224,-3.2261,-3.2261,-3.2261,-3.2244,-3.2243,-3.2242,-3.2241,-3.2254,-3.2255,-3.2256,-3.2284,0,0,-3.226,-3.2261,0,0,0,0,0,0,0,0,-3.2217,-3.222,-3.2241,-3.224,-3.224,-3.2249,-3.2249,-3.2269,-3.2244,-3.2242,-3.2242,-3.2241,-3.2253,-3.2255,-3.2259,-3.2284,-3.2285,-3.2261,-3.2261,-3.2262,-3.2262,0,0,0,0,0,0,0,-3.2216,-3.2219,-3.2252,-3.2241,-3.2241,-3.2235,-3.2236,-3.2253,-3.2253,-3.2242,-3.2241,-3.2243,-3.2253,-3.2258,-3.2259,-3.2285,-3.2261,-3.2262,-3.2263,-3.2263,-3.2329,-3.233,0,0,0,0,0,0,-3.2216,-3.2218,-3.2252,-3.2252,-3.2226,-3.2236,-3.2238,-3.2247,-3.2253,-3.2253,-3.2244,-3.2242,-3.2256,-3.2258,-3.226,-3.229,-3.2262,-3.2263,-3.2264,-3.2329,-3.233,-3.2331,0,0,0,0,0,0,-3.2215,-3.2219,-3.2251,-3.2235,-3.2239,-3.2238,-3.2249,-3.2248,-3.2253,-3.2254,-3.2253,-3.2249,-3.2255,-3.2258,-3.2277,-3.229,-3.2264,-3.2265,-3.2327,-3.2329,-3.233,-3.2352,0,0,0,0,0,0,-3.2213,-3.2219,-3.223,-3.2235,-3.2239,-3.227,-3.225,-3.2249,-3.2256,-3.2254,-3.2259,-3.2259,-3.2255,-3.2275,-3.2279,-3.2292,-3.2266,-3.2326,-3.2328,-3.233,-3.235,-3.2354,-3.2357,0,0,0,0,0,-3.2212,-3.2236,-3.2231,-3.2235,-3.2254,-3.2271,-3.2273,-3.2268,-3.2257,-3.2268,-3.2268,-3.2259,-3.2288,-3.2277,-3.2281,-3.2295,-3.2325,-3.2328,-3.233,-3.2349,-3.2353,-3.2357,0,0,0,0,0,0,-3.2233,-3.2237,-3.2231,-3.2258,-3.2264,-3.2268,-3.2281,-3.2274,-3.2283,-3.2281,-3.2274,-3.2275,-3.2295,-3.2297,-3.2285,-3.232,-3.2305,-3.2308,-3.2318,-3.2322,-3.2326,-3.2325,-3.2267,0,0,0,0,0,-3.2241,-3.2255,-3.2257,-3.2281,-3.2284,-3.2282,-3.2289,-3.2285,-3.229,-3.2293,-3.2294,-3.2299,-3.2309,-3.2316,-3.2326,-3.235,-3.235,-3.2361,-3.2365,-3.2368,-3.237,-3.238,-3.2385,-3.2338,-3.2338,-3.2337,0,0,-3.2257,-3.2261,-3.227,-3.2285,-3.2289,-3.2302,-3.2284,-3.23,-3.2308,-3.2295,-3.2313,-3.2314,-3.2318,-3.234,-3.2349,-3.2342,-3.2383,-3.237,-3.2373,-3.2373,-3.2383,-3.2387,-3.2391,-3.2339,-3.2339,-3.2338,0,0,-3.2293,-3.2299,-3.2317,-3.2321,-3.2327,-3.2326,-3.233,-3.2334,-3.2334,-3.2352,-3.2341,-3.2351,-3.2369,-3.2372,-3.2376,-3.241,-3.2401,-3.2413,-3.2431,-3.2441,-3.2445,-3.2448,-3.2458,-3.2462,-3.2415,-3.2415,-3.2415,0,-3.2313,-3.2333,-3.2328,-3.2343,-3.2348,-3.2336,-3.2354,-3.2357,-3.2366,-3.237,-3.2361,-3.2382,-3.2385,-3.2405,-3.2413,-3.2417,-3.242,-3.2412,-3.2445,-3.2448,-3.2451,-3.246,-3.2464,-3.2417,-3.2417,-3.2416,-3.2416,0,-3.2355,-3.2368,-3.2383,-3.2391,-3.2398,-3.2414,-3.241,-3.2417,-3.2412,-3.241,-3.2427,-3.2429,-3.2437,-3.2442,-3.2437,-3.2461,-3.2456,-3.2447,-3.2431,-3.2457,-3.2465,-3.2469,-3.2419,-3.2418,-3.2418,-3.2417,0,0,-3.2406,-3.2409,-3.2415,-3.2417,-3.2421,-3.2431,-3.2445,-3.2454,-3.2459,-3.2465,-3.2475,-3.2489,-3.248,-3.2484,-3.2479,-3.2488,-3.2511,-3.2477,-3.2477,-3.2482,-3.2535,-3.2541,-3.2545,-3.2506,-3.2506,-3.2507,-3.2534,0,-3.244,-3.2466,-3.246,-3.2485,-3.2496,-3.2483,-3.2495,-3.2498,-3.2496,-3.2504,-3.2502,-3.2511,-3.2499,-3.2501,-3.2509,-3.2507,-3.2522,-3.2505,-3.2513,-3.2514,-3.2512,-3.255,-3.2557,-3.2582,-3.2537,-3.2538,-3.2538,0,-3.2485,-3.2491,-3.2516,-3.2516,-3.252,-3.2532,-3.2537,-3.2545,-3.2547,-3.2545,-3.2549,-3.2541,-3.2553,-3.2538,-3.2553,-3.2541,-3.2544,-3.2543,-3.2544,-3.2544,-3.2527,-3.2549,-3.2591,-3.2594,-3.2544,-3.2543,-3.2543,0,-3.2517,-3.2532,-3.2548,-3.2551,-3.2552,-3.2559,-3.256,-3.2561,-3.2565,-3.2569,-3.2571,-3.2577,-3.258,-3.2584,-3.2577,-3.2567,-3.2592,-3.2577,-3.2589,-3.2589,-3.2594,-3.2594,-3.2635,-3.2598,-3.2598,-3.2598,-3.2598,0,-3.2555,-3.2571,-3.2562,-3.2572,-3.2588,-3.258,-3.2596,-3.2595,-3.2595,-3.2603,-3.2593,-3.26,-3.2592,-3.2598,-3.2592,-3.2604,-3.2606,-3.2603,-3.2601,-3.2603,-3.2603,-3.2604,-3.2602,-3.2599,-3.2599,-3.2599,-3.2599,0,-3.2594,-3.2589,-3.2606,-3.2604,-3.2604,-3.2616,-3.2614,-3.2622,-3.2618,-3.2628,-3.263,-3.2625,-3.2631,-3.2625,-3.2631,-3.2627,-3.2642,-3.2638,-3.2641,-3.264,-3.2651,-3.265,-3.2694,-3.2698,-3.266,-3.266,-3.2661,0,-3.2618,-3.2629,-3.2629,-3.2633,-3.2634,-3.2642,-3.2646,-3.2638,-3.2642,-3.2643,-3.2651,-3.2656,-3.266,-3.267,-3.2666,-3.267,-3.2665,-3.268,-3.2666,-3.2666,-3.2663,-3.2662,-3.2662,-3.2683,-3.2683,-3.2684,-3.2684,0,-3.2661,-3.2657,-3.2664,-3.2668,-3.2673,-3.2676,-3.2678,-3.2682,-3.2674,-3.2679,-3.2685,-3.2688,-3.2693,-3.2698,-3.27,-3.2699,-3.2689,-3.2689,-3.2691,-3.2693,-3.2694,-3.2691,-3.2648,-3.2688,-3.2687,-3.2687,-3.2687,-3.2687,-3.2692,-3.27,-3.27,-3.2706,-3.2707,-3.2709,-3.2715,-3.2712,-3.2717,-3.2721,-3.2716,-3.2723,-3.2721,-3.2723,-3.2723,-3.2727,-3.272,-3.2725,-3.2726,-3.2726,-3.2727,-3.2694,-3.2728,-3.2727,-3.2727,-3.2727,-3.2727,0,-3.2732,-3.2731,-3.2737,-3.274,-3.2744,-3.2735,-3.2736,-3.274,-3.2746,-3.2746,-3.275,-3.2755,-3.2759,-3.2754,-3.2757,-3.2761,-3.2756,-3.2761,-3.276,-3.276,-3.2734,-3.2731,-3.2765,-3.2765,-3.2765,-3.2765,-3.2765,-3.2765,-3.2754,-3.2766,-3.2762,-3.2774,-3.2772,-3.2779,-3.278,-3.2781,-3.278,-3.2787,-3.279,-3.2787,-3.2784,-3.2786,-3.2788,-3.2786,-3.2787,-3.2793,-3.279,-3.2766,-3.2762,-3.2758,-3.2755,-3.2794,-3.2794,-3.2815,-3.2815,-3.2815]}]]